{"data":{"norad_id":32289,"intl_designator":"2007-055A","name":"YAOGAN-3","alt_names":[],"object_type":"PAYLOAD","status":"ACTIVE","operator":null,"country":"PRC","launch_date":"2007-11-11","launch_site_code":"TAISC","launch_vehicle":null,"mission":null,"orbit_class":"UNKNOWN","rcs_meters":5.129,"size_class":null,"mass_kg":null,"dimensions":null,"purposes":["earth_obs"],"wikipedia_slug":null,"has_3d_model":false,"image_url":null,"decayed_at":null,"tle_current":{"epoch":"2026-09-19T23:00:02.990016Z","epoch_age_seconds":61190,"freshness":"FRESH","line1":"1 32289U 07055A   26262.95836794  .00000997  00000+0  10635-3 0  9992","line2":"2 32289  97.8110 291.8945 0001738  89.2659 270.8758 14.91070571 19998","mean_motion":14.91070571,"eccentricity":0.0001738,"inclination_deg":97.811,"raan_deg":291.8945,"arg_perigee_deg":89.2659,"mean_anomaly_deg":270.8758,"bstar":0.00010635,"rev_number":1999,"period_min":96.574905843273,"perigee_km":593.38424621166,"apogee_km":595.80796823973,"semimajor_km":6972.7331072257,"source":"CELESTRAK","updated_at":"2026-09-20T09:00:33.887222Z"}}}